COSMOS 2269

Satellite information

Favourite Embed

Satellite Type and Status

PAYLOADIN ORBIT

Key statistics

Satellite COSMOS 2269 at a glance.

Uptime

11480

Days in orbit

Revolutions

≈ 12.6

Per day

Orbit

LEO

Low Earth Orbit

Inclination

82.6

Latest

Satellite identification and parameters

Extended collection of information and parameters for COSMOS 2269.

Object identification

Identified? True

Debris? False

Object name: COSMOS 2269

International designator: 1994-011B

Object number (NORAD): 23000

Object ID (CCSDS): 23000

Country: COMMONWEALTH OF INDEPENDENT STATES (CIS)

Current information (Y/N): Y

RCS size: LARGE

Orbital parameters

Period: 114.111 minutes

Inclination: 82.568 deg

SMA: 7793.113 km

Apoapsis: 1419.598 km

Periapsis: 1410.358 km

RAAN: 174.8473 deg

Eccentricy: 0.0005928

Argument of periapsis: 221.2759 deg

Mean anomaly: 261.2253 deg

Mean motion: 12.61933068 rev/day

Mean motion (dot): 0.00000036 rev/day2

B* drag term: 0.00014545 1/REarth

Two-line elements (TLE)

Creation date: July 17, 2025, 5:14 p.m.

Reference frame: TEME

Reference center: EARTH

Epoch: July 17, 2025, 11:09 a.m. UTC

TLE line 0: 0 COSMOS 2269

TLE line 1: 1 23000U 94011B 25198.46470840 .00000036 00000-0 14545-3 0 9999

TLE line 2: 2 23000 82.5680 174.8473 0005928 221.2759 261.2253 12.61933068447456

Live tracking on map

Real-time ground track for satellite COSMOS 2269.

In-orbit conjunctions

There are no conjunctions computed for COSMOS 2269, at the moment. Check back to stay up to date, as we update our databases every day.

Go to all conjunctions

Associated space launch

Second generation store-dump military communications satellites

COSMOS 2269 was lifted into orbit during the mission ‘Tsiklon-3 | Strela-3 101 to 106’, on board a Tsiklon-3 space rocket.

The launch took place on Feb. 12, 1994, 8:54 a.m. from 32/1.

For more information about the launch, click the button.

Launch to space Tsiklon-3 | Strela-3 101 to 106
Tsiklon-3 | Strela-3 101 to 106

Agency: N/A

Status: Launch Successful

Launch date: Feb. 12, 1994, 8:54 a.m. UTC

Rocket: Tsiklon-3

Launch pad: 32/1

Location: Plesetsk Cosmodrome, Russian Federation

...

Latest news about this satellite

There are no fresh news available about this satellite. Check back as we update our databases every day.


Newsletter sign-up

Weekly statistics, charts and insights to help you stay on top of the space industry.